Погода в Кошагаче

Узбекистан     49°59′47″N   88°39′41″E
темп.,
°C
ветер,
м/с
пор.,
м/с
влажн.,
%
обл.,
%
осадки,
мм/ч
давл.,
гПа
погр.,
м
3 марта, ср
ср323:00−15в1279100 0.0 101520
02:00−16св1281100 0.0 101520
05:00−16ссв1184100 0.0 101520
08:00−12в1283100 0.0 101592
11:00−9юз1469100 0.0 1013630
14:00−8зюз8126367 0.1 10151040
17:00−13зюз367367 0.1 102093
20:00−19ссв128242 0.1 102620
4 марта, чт
чт423:00−22юв118025 0.1 102920
02:00−24ссв11790 0.0 103220
05:00−26св11840 0.0 103520
08:00−20всв11800 0.0 103484
11:00−17ююв11676 0.0 1030253
14:00−14ююв11580 0.0 1027278
17:00−20ссв11661 0.0 103020
20:00−21св11630 0.0 103220
5 марта, пт
пт523:00−22св11640 0.0 103220
02:00−24св115824 0.0 103220
05:00−23св115747 0.0 103120
08:00−17в1260100 0.0 102896
11:00−11юв0150100 0.0 1022197
14:00−9юз1163100 0.0 1021361
17:00−14вюв018197 0.0 102621
20:00−15с128590 0.0 103120
6 марта, сб
сб623:00−18всв119359 0.0 103420
02:00−21всв01970 0.0 103520
05:00−22всв11980 0.0 103720
08:00−17в01820 0.0 103495
11:00−13ююв11642 0.0 1028266
14:00−10юз11594 0.0 1024248
17:00−16с11692 0.0 102620
20:00−18св117348 0.0 102820
7 марта, вс
вс723:00−20св117626 0.0 102820
02:00−21ссв11640 0.0 102820
05:00−22ссв11560 0.0 102920
08:00−16в11550 0.0 1027102
11:00−12ююз11530 0.0 1022218
14:00−10ююз11590 0.0 1020183
17:00−15с016713 0.0 102321
20:00−16св117096 0.0 102520